Simultaneous Nadir Overpasses (SNOs) Predictions

Prediction of SNOs between AQUA and NOAA-19 Satellite Orbit:

Table of predicted SNOs for the next 14.0 days since TLE Epoch: 12/31/2022
Index Date (AQUA) Time (AQUA) Lat,Lon (AQUA) SZA (AQUA ) Date (NOAA-19) Time (NOAA-19) Lat,Lon (NOAA-19) SZA (NOAA-19 ) Distance(km) Time Diff (sec)
1 01/02/2023 01:58:51 -76.57, -41.13 80.27 01/02/2023 01:57:44 -76.51, -43.97 80.17 73.99 67
2 01/02/2023 02:48:25 76.95, 125.18 100.16 01/02/2023 02:48:28 76.93, 125.08 100.15 3.01 3
3 01/04/2023 08:21:10 -76.93,-137.93 80.06 01/04/2023 08:21:18 -76.93,-138.04 80.05 2.89 8
4 01/06/2023 13:04:19 -76.43, 153.01 80.87 01/06/2023 13:03:15 -76.39, 149.33 80.70 96.11 64
5 01/06/2023 13:53:56 76.95, -41.19 99.73 01/06/2023 13:53:57 76.92, -41.20 99.70 4.09 1
6 01/08/2023 19:26:40 -76.95, 55.67 80.56 01/08/2023 19:26:46 -76.93, 55.72 80.58 2.29 6
7 01/11/2023 00:09:47 -76.41, -13.26 81.48 01/11/2023 00:08:43 -76.37, -16.97 81.30 97.02 64
8 01/11/2023 00:59:24 76.94, 152.53 99.13 01/11/2023 00:59:25 76.92, 152.61 99.11 2.77 1
9 01/13/2023 06:32:06 -76.90,-110.47 81.28 01/13/2023 06:32:13 -76.93,-110.47 81.24 4.25 7



Historial Predications of SNOs between AQUA and NOAA-19
